Location: Goll?ig?dem
(16.6773°N, 80.7332°E)
Time: 01:28:01
(UTC+00:00)

Milstar 3 - Pass Details

Date: 19 May 2025
Orbit: 1098 x 5147 km, 28.2° (Epoch: 18 June)

Event Time Altitude Azimuth Distance (km) Brightness Sun altitude
Exits shadow 20:40:29 51° 331° (NNW) 2,114 4.1 -41.9°
Maximum altitude 20:41:05 52° 341° (NNW) 2,055 4.1 -41.8°
Drops below altitude 10° 20:48:47 10° 58° (ENE) 3,253 5.9 -40.6°
Sets 20:51:15 0° 64° (ENE) 4,060 6.5 -40.2°
